Regional Weather Roundup
Issued by NWS

Home | Current Version | Previous Version | Graphics & Text | Print | Product List | Glossary On
Versions: 1 2 3 4 5 6 7 8 9 10 11 12 13 14 15 16 17 18 19 20 21 22 23 24 25 26 27
000
ASUS45 KBOU 221107
RWRCO

WEATHER ROUNDUP FOR COLORADO
NATIONAL WEATHER SERVICE DENVER/BOULDER CO
500 AM MDT WED MAR 22 2017

NOTE: "FAIR" INDICATES FEW OR NO CLOUDS BELOW 12000 FEET WITH NO
SIGNIFICANT WEATHER AND/OR OBSTRUCTIONS TO VISIBILITY.

COZ001>005-013-030-031-221200-
...NORTHWEST COLORADO...

CITY           SKY/WX    TMP DP  RH WIND       PRES   REMARKS
CRAIG          MOCLDY    41  30  65 CALM      30.00F
HAYDEN         MOCLDY    46  27  46 SE9       30.02F
MEEKER         MOCLDY    48  29  47 NE3       30.00F
MOUNT WERNER   NOT AVBL
STEAMBOAT SPGS MOCLDY    41  30  65 CALM      30.05S
WALDEN         NOT AVBL
$$

COZ006>008-011-221200-
...WEST CENTRAL VALLEYS...

CITY           SKY/WX    TMP DP  RH WIND       PRES   REMARKS
GRAND JUNCTION FAIR      57  30  35 SE18      29.94F
MONTROSE       FAIR      62  22  21 S9        30.04F
EAGLE          CLOUDY    38  29  70 CALM      30.11S
RIFLE          FAIR      46  33  60 S6        30.00F
DELTA          FAIR      53  31  42 NE8       30.02S
NUCLA          FAIR      57  23  26 E6        30.08F
$$

COZ017>023-064>068-221200-
...SOUTHWEST COLORADO...

CITY           SKY/WX    TMP DP  RH WIND       PRES   REMARKS
DURANGO        FAIR      36  27  69 NE3       30.14F
CORTEZ         FAIR      37  29  72 CALM      30.08F
PAGOSA SPRINGS FAIR      38  29  69 CALM      30.19S
TELLURIDE      NOT AVBL
WOLF CREEK PAS MOCLDY    32  19  59 S16G26    30.37R WCI  21
$$

COZ009-010-012-014-032>034-037-058>063-221200-
...CENTRAL COLORADO...

CITY           SKY/WX    TMP DP  RH WIND       PRES   REMARKS
ASPEN          FAIR      45  25  45 S7        30.10F
BUENA VISTA    FAIR      29  25  85 W5        30.19S WCI  24
COPPER MTN     MOCLDY    37  19  48 SW7       30.31F
BERTHOUD PASS  MOCLDY    30  19  64 W20G28    30.30F WCI  18
COTTONWOOD PAS MOCLDY    41  28  60 W3        30.23S
GUNNISON       FAIR      32  29  88 CALM      30.20S
KREMMLING      FAIR      37  28  70 CALM      30.12F
LEADVILLE      FAIR      27  20  75 MISG      30.22S
MONARCH PASS   CLOUDY    34  21  60 SW17      30.43S WCI  23
SALIDA         FAIR      39  33  78 CALM      30.25S
SUNLIGHT       NOT AVBL
WILKERSON PASS FAIR      34  21  60 SW15G22   30.28F WCI  24
$$

COZ069>075-221200-
...SAN LUIS VALLEY/SANGRE DE CRISTO MOUNTAINS...

CITY           SKY/WX    TMP DP  RH WIND       PRES   REMARKS
ALAMOSA        FAIR      29  22  75 CALM      30.17S
LA VETA PASS   NOT AVBL
SAGUACHE       FAIR      37  28  70 NW9       30.19S
$$

COZ035-036-038>040-221200-
...NORTHERN COLORADO FRONT RANGE...

CITY           SKY/WX    TMP DP  RH WIND       PRES   REMARKS
DENVER INTL AP FAIR      39  33  79 W7        30.04S
DMNS CITY PARK   N/A     41  34  76 N2        30.05R
AURORA         PTCLDY    40  31  68 S8        30.05F
FRONT RANGE AP FAIR      41  34  75 S9        30.05S
ERIE MUNI ARPT FAIR      35  32  88 NW3       30.05S
BOULDER MUN AP FAIR      37  34  87 N3        30.05S
CENTENNIAL     FAIR      40  31  70 S5        30.04F
BROOMFIELD     FAIR      37  34  87 NW12      30.05S
FORT COLLINS   FAIR      35  29  78 N9        30.07S WCI  28
LONGMONT       FAIR      40  33  75 N13       30.06F
$$

COZ041-046-047-076>085-087-088-221200-
...PIKES PEAK/PALMER DIVIDE AND SOUTHERN FOOTHILLS...

CITY           SKY/WX    TMP DP  RH WIND       PRES   REMARKS
COLO. SPRINGS  CLOUDY    36  29  75 E9        30.17S
A. F. ACADEMY  CLOUDY    37  30  78 S10       30.14F
SCHRIEVER AFB  CLOUDY    34  29  81 S7        30.17F WCI  28
ELLICOTT         N/A    N/A N/A N/A SE9       30.15F
FALCON         CLOUDY    33  31  91 S7        30.16F WCI  27
FORT CARSON    CLOUDY    37  30  75 SE6       30.15F
LIMON          CLOUDY    33  25  72 S14       30.15S WCI  23
MONUMENT HILL  FAIR      32  30  93 S21       30.11F WCI  20
TRINIDAD       FAIR      39  33  79 NE10      30.13R
$$

COZ042>045-048>051-090-091-221200-
...NORTHEAST COLORADO...

CITY           SKY/WX    TMP DP  RH WIND       PRES   REMARKS
GREELEY ARPT   FAIR      38  30  73 E9        30.05F
AKRON          FAIR      34  23  64 SE21      30.12F WCI  22
BURLINGTON     CLOUDY    39  32  76 SE17G26   30.17F
WRAY           MOCLDY    37  32  81 E10       30.19F
STERLING       FAIR      34  28  80 S6        30.12F WCI  29
HOLYOKE        CLOUDY    37  34  87 SE17      30.17F
FORT MORGAN    FAIR      36  24  64 SE13G18   30.10F
$$

COZ086-089-092>099-221200-
...SOUTHEAST COLORADO...

CITY           SKY/WX    TMP DP  RH WIND       PRES   REMARKS
PUEBLO         FAIR      37  29  72 NE10      30.15F
LA JUNTA       FAIR      39  31  72 E15       30.13F
LAMAR          CLOUDY    44  27  51 SE8       30.17S
SPRINGFIELD      N/A     38  34  85 S8        30.19S
$$




USA.gov is the U.S. government's official web portal to all federal, state and local government web resources and services.